ARIANE 1 DEB, 25098

Orbit data source: Space-Track

ARIANE 1 DEB, 25098 is space debris in HEO originally from a launch on Mon, 24 Dec 1979 UTC launched from the French Guiana (FRGUI). Debris objects in space refer to the collection of defunct objects orbiting the Earth. Examples of debris include non-operational satellites, rocket bodies, and fragments generated from explosions, collisions, or faulty payload assembly.

Loading next visibility...
Identifier
25098, 1979-104D
Orbit
HEO
Country
Flag of FRFR
Related business
Manufacturer
ESA
Mission
Spacecraft
Bus & Motor
Unknown
Mass
Unknown
Launch date (UTC)
1979-12-24 (46 years ago)
Launch vehicle
Unknown
Launch site
French Guiana (FRGUI)
Object type
Payload
Rocket body
Debris
Shape & HBR
Unknown shape, 0.2 m
Radar Cross Section
Medium (>0.1 m² and <1 m²)

Expand to show TLE details & history
Last TLE update: 4 days ago

TLE from 4 days ago
0 ARIANE 1 DEB
1 25098U 79104D   25306.47855819 -.00000038  00000-0 -27024-3 0  9999
2 25098  17.5334 166.4587 5349312 293.8123  20.0257  4.79108260432799
Epoch: 2025-11-02T11:29Z
TLE epoch observation values (Epoch: 2025-11-02T11:29:07.427Z)
Latitude
0.00017°
Longitude
-47.76868°
Altitude
2,357.082 km
Speed
8.028 km/s
True Right ascension
11h 06m 01s
True Declination
0° 00' 01"
Sunlit
Object was in daylight at epoch
Visualization orbit readout
Latitude
Unknown
Longitude
Unknown
Altitude
Unknown
Speed
Unknown
Apparent Right ascension
Unknown
Apparent Declination
Unknown
Sunlit
N/A
Visualization observer readout
Local Sidereal Time
18:40:38
Azimuth
Unknown
Elevation
Unknown
Doppler factor
Unknown
Orbital elements
Apogee altitude
16,442.404 km
Perigee altitude
536.259 km
Semi-major axis
14,867.468 km
Eccentricity
0.53493
Inclination
17.5334°
RAAN
166.4587°
Arg. of periapsis
293.8123°
True anomaly
66.28164°
Mean anomaly
20.0257°
Eccentric anomaly
39.53584°
Mean motion
1.19726 °/min
Orbital period
300.69 mins
BSTAR
-0.00027024
Loading maneuver chart data...
Computing Atmospheric mass density...
Loading historical data...
Loading historical data...
Loading historical data...
Loading historical data...
Loading historical data...
Loading historical data...
Loading historical data...

Documentation

Showing up to 5 results
|